master138

Jackpot

Texas Poker Multi Jackpot System

Kini Telah hadir Jackpot SUPER ROYAL FLUSH

Kini Telah hadir Jackpot 2000 (khusus table VIP keatas).

Ikutilah global jackpot yang tersedia di system kami, dengan system jackpot terbaru dan pertama di indonesia, anda dapat membeli jackpot dengan harga 100 rupiah saja dan menangkan hadiahnya hingga puluhan juta rupiah.

Jackpot bukanlah suatu keharusan untuk dibeli, namun kami memberikan suatu fitur tambahan untuk member tercinta dari www.ingatpoker.net.

Terdapat tiga pilihan harga jackpot yang bisa anda beli yaitu :100,500,1000 dan 2000(khusus table VIP Keatas) rupiah.

Hadiah dari Multi jackpot system www.ingatpoker.net

  1. full house x 10 harga jackpot yang anda beli.
      (contoh:anda membeli 1000 maka:1000 X10 = 10.000)
  2. four of kind x 250 harga jackpot yang anda beli
      (contoh:anda membeli 1000 maka:1000 X250 = 250.000)
  3. Straight flush x 1200
      (contoh:anda membeli 1000 maka:1000 X1200 = 1.200.000)
  4. Royal flush x 10000 harga jackpot yang anda beli
      (contoh:anda membeli 1000 maka:1000 X10000 = 10.000.000)
  5. SUPER ROYAL FLUSH x 30000 harga jackpot yang anda beli
      (contoh:anda membeli 1000 maka:1000 X30000 = 30.000.000)

Kondisi kartu

  1. full house adalah kondisi kartu dimana kartu anda dan kartu tengah dengan total 7 kartu bisa mendapatkan nilai 5 kartu dengan kombinasi 1 tris(three of kind) dan 1 pair, contoh 3 kartu 10 dan 2 kartu 5
  2. Four of kind adalah kondisi kartu dimana kartu anda dan kartu tengah dengan total 7 kartu bisa mendapatkan nilai 5 kartu dengan kombinasi 4 kartu yang sama jumlah dan 1 kartu apapun juga contoh anda mendapatkan 4 buah kartu angka 3 dan 1 kartu apapun.
  3. Staright flush adalah kondisi kartu dimana kartu anda dan kartu tengah dengan total 7 kartu bisa mendapatkan nilai 5 kartu dengan kombinasi seri / staright dengan kembang yang sama contoh : urutan kartu dari angka 5, 6, 7, 8 , 9 10 dengan kembang yg sama misalnya as hati
  4. Royal flush adalah kondisi kartu dimana kartu anda dan kartu tengah dengan total 7 kartu bisa mendapatkan nilai 5 kartu dengan kombinasi seri / staright dengan kembang yang sama tetapi kartu tersebut haruslah dimulai dari 10. contoh 10, Queen, Jack, King dan aces dengan kembang yang sama
  5. Super Royal flush adalah kondisi kartu dimana Kedua kartu anda digabung dengan 3 kartu pertama meja haruslah royal flush. contoh kartu anda 10,Queen kembang sama dan 3 kartu pertama meja adalah Jack, King dan aces dengan kembang yang sama

Demikian adalah penjelasan dari Multi Jackpot www.ingatpoker.net terima kasih dan selamat bermain salam hoki dari kami

Texas Poker Jackpot Winner

TOP SUPER ROYAL FLUSH
No.TanggalNamaPriceWin
121/09 07:46AKABAD1Super Royal flush15,000,000
221/09 04:40DRAKULA999Super Royal flush6,000,000
320/09 23:08CIPAPOH98Super Royal flush15,000,000
420/09 21:04DKGAM05Super Royal flush30,000,000
520/09 19:13OGENK1Super Royal flush6,000,000
TOP ROYAL FLUSH
No.TanggalNamaPriceWin
122/09 06:54GOLEK02Royal flush20,000,000
222/09 06:41BD48392BRoyal flush2,000,000
322/09 05:26USMO23O1L4Royal flush5,000,000
422/09 04:31BUNAN23Royal flush500,000
522/09 04:15ALICK1610Royal flush5,000,000
TOP STRAIGHT FLUSH
No.TanggalNamaPriceWin
122/09 07:54PATTIKSUDEStraight Flush240,000
222/09 07:48IEBE270386Straight Flush600,000
322/09 07:43AIDHANSYAMStraight Flush600,000
422/09 07:42POYYY_Straight Flush120,000
522/09 07:41ROKER11Straight Flush600,000
LATEST JACKPOT
No.TanggalNamaPriceWin
122/09 07:57TEMP078Full House1,000
222/09 07:57VANAJAWSFull House2,000
322/09 07:57BEZOS_Full House10,000
422/09 07:57FAJARSA88Full House1,000
522/09 07:57CBITWKV7H9Full House10,000
622/09 07:57ABD41Full House1,000
722/09 07:57BEZZENG23Full House5,000
822/09 07:57KOBOYSTAR7Full House2,000
922/09 07:57P4NZ3R_03Four Of A Kind500,000
1022/09 07:56AM35T4NFull House5,000
1122/09 07:56VOVOVOVOFull House20,000
1222/09 07:56OMBEH1Full House20,000
1322/09 07:56RIMHAFull House20,000
1422/09 07:56MUMET82Four Of A Kind500,000
1522/09 07:56BIKSU_9Full House2,000
1622/09 07:56BOCAHCEPUFull House5,000
1722/09 07:56RIFENFull House1,000
1822/09 07:56KATEN45Full House1,000
1922/09 07:56N3R1Full House500
2022/09 07:56YELI192Four Of A Kind25,000
2122/09 07:56IDUNG222Full House1,000
2222/09 07:56LASOMU77Full House5,000
2322/09 07:56ESSIEN15Full House5,000
2422/09 07:56KAMILIKANFull House5,000
2522/09 07:56CICAKCAKFull House2,000
2622/09 07:56K4R4NK_OGFull House2,000
2722/09 07:56KUDU_AS_ASFull House2,000
2822/09 07:56RENDRA2592Full House2,000
2922/09 07:56GUDANG020Full House2,000
3022/09 07:56CHRISCOMBFull House1,000
3122/09 07:56N2T0H10Full House20,000
3222/09 07:56GENG000Full House5,000
3322/09 07:56ASDG1N14Full House2,000
3422/09 07:55KAMILIKANFull House5,000
3522/09 07:55RONZ8Full House10,000
3622/09 07:55DAE56B2BFull House2,000
3722/09 07:55CALVERINFull House10,000
3822/09 07:55ICE_TOWERFull House2,000
3922/09 07:55E86IYYOOO9Four Of A Kind125,000
4022/09 07:55HUNI123Full House2,000
4122/09 07:55R4J4B4NFull House5,000
4222/09 07:55SPINBOY99Full House10,000
4322/09 07:55TEBAZZZ9Full House5,000
4422/09 07:55ARAY797Full House1,000
4522/09 07:55CIHUY2Full House10,000
4622/09 07:55DEBRONG182Full House2,000
4722/09 07:55ISMISSFull House5,000
4822/09 07:55THE_RAISFull House10,000
4922/09 07:55J_P_SOKYESFull House500
5022/09 07:55COLA28Full House500

Domino Multi Jackpot System

Ikutilah global jackpot yang tersedia di system kami, dengan system jackpot terbaru dan pertama di indonesia, anda dapat membeli jackpot dengan harga 100 rupiah saja dan menangkan hadiahnya hingga puluhan juta rupiah.

Jackpot bukanlah suatu keharusan untuk dibeli, namun kami memberikan suatu fitur tambahan untuk member tercinta dari www.ingatpoker.net.

Terdapat tiga pilihan harga jackpot yang bisa anda beli yaitu :100,500 dan 1000 rupiah.

Hadiah dari Multi jackpot system www.ingatpoker.net

  1. Murni Kecil x 50 harga jackpot yang anda beli.
      (contoh:anda membeli 1000 maka:1000 X 50 = 50.000)
  2. Murni Besar x 50 harga jackpot yang anda beli
      (contoh:anda membeli 1000 maka:1000 X 50 = 50.000)
  3. BALAK x 100 harga jackpot yang anda beli
      (contoh:anda membeli 1000 maka:1000 X 100 = 100.000)
  4. ENAM DEWA x 6666 harga jackpot yang anda beli
      (contoh:anda membeli 1000 maka:1000 X 6666 = 6.666.000)

Demikian adalah penjelasan dari Multi Jackpot www.ingatpoker.net terima kasih dan selamat bermain salam hoki dari kami

Domino Jackpot Winner

TOP ENAM DEWA
No.TanggalNamaPriceWin
122/09 01:40INDR88murni enam666,600
222/09 01:04KUDAJACKPOmurni enam6,666,000
321/09 23:11HERM4N09murni enam666,600
421/09 22:50C4NGCUT321murni enam6,666,000
521/09 21:52BORAS90murni enam666,600
TOP BALAK
No.TanggalNamaPriceWin
122/09 07:40TJFTbalak100,000
222/09 07:37CEDOK83balak10,000
322/09 07:27SELLA171balak50,000
422/09 07:12SAREBbalak50,000
522/09 07:09BL4R4NGbalak50,000
LATEST JACKPOT
No.TanggalNamaPriceWin
122/09 07:55DEVILITO10murni besar25,000
222/09 07:55COFFEMIX3murni besar25,000
322/09 07:54SIKADAL27murni besar50,000
422/09 07:52DIYYASmurni kecil50,000
522/09 07:51DEDYSKY1murni besar50,000
622/09 07:51ULEM27murni besar25,000
722/09 07:50BITZERmurni besar50,000
822/09 07:50INDUNGSIAmurni kecil50,000
922/09 07:49ZAKI2903murni kecil50,000
1022/09 07:48ENCIT234murni kecil50,000
1122/09 07:48SIGARmurni besar25,000
1222/09 07:46BITZERmurni besar50,000
1322/09 07:45SALSA0410murni besar50,000
1422/09 07:43BOCAHKSmurni kecil50,000
1522/09 07:43HOKI_WD788murni kecil5,000
1622/09 07:41DE12SRY1_5murni besar50,000
1722/09 07:40GUSALImurni besar25,000
1822/09 07:40TJFTbalak100,000
1922/09 07:40CBMRHF5QHVmurni kecil50,000
2022/09 07:39RUL7murni kecil25,000
2122/09 07:38SETIA122murni besar5,000
2222/09 07:38T4KDI12murni besar25,000
2322/09 07:37CEDOK83balak10,000
2422/09 07:36EBD5AF60murni kecil5,000
2522/09 07:35BOHAYTIANmurni besar5,000
2622/09 07:34XCEVERXmurni kecil25,000
2722/09 07:33PECEL3NGANmurni besar50,000
2822/09 07:30BRAVY99murni besar5,000
2922/09 07:29GEGANGmurni besar50,000
3022/09 07:27URANGPASAmurni kecil25,000
3122/09 07:27SELLA171balak50,000
3222/09 07:26SIKIL46murni besar5,000
3322/09 07:24H4IK4L20murni besar5,000
3422/09 07:23GUSALImurni kecil5,000
3522/09 07:23KINGELITEmurni kecil25,000
3622/09 07:22PAGERBRCmurni kecil5,000
3722/09 07:22KASDI89murni kecil5,000
3822/09 07:19MULES04murni besar50,000
3922/09 07:18AXEL66murni besar25,000
4022/09 07:18PD15murni kecil5,000
4122/09 07:18DANDI_DAYmurni besar5,000
4222/09 07:18TRUEGAMEmurni besar25,000
4322/09 07:17BNIQQQ341murni besar5,000
4422/09 07:15KINGELITEmurni besar25,000
4522/09 07:14KOCIKKKmurni besar25,000
4622/09 07:14MULES04murni kecil50,000
4722/09 07:13EVHEARTmurni besar5,000
4822/09 07:12SAREBbalak50,000
4922/09 07:09BL4R4NGbalak50,000
5022/09 07:08IMANEZIAmurni besar25,000

Ceme Multi Jackpot System

Jackpot dilihat dari gabungan kartu pemain dengan kartu bandar. Bandar harus membeli jackpot sebanyak jumlah player yang sedang duduk. Sebagai contoh bila terdapat 3 pemain duduk bermain, dan bandar memutuskan untuk membeli jackpot Rp 1.000, maka pada periode tersebut bandar akan membeli jackpot sebanyak 3xRp1.000 = Rp3.000.

Jackpot bukanlah suatu keharusan untuk dibeli, namun kami memberikan suatu fitur tambahan untuk member tercinta dari www.ingatpoker.net.

Terdapat tiga pilihan harga jackpot yang bisa anda beli yaitu :100,500 dan 1000 rupiah.

Hadiah dari Multi jackpot system www.ingatpoker.net

  1. Murni Kecil x 50 harga jackpot yang anda beli.
      (contoh:anda membeli 1000 maka:1000 X 50 = 50.000)
  2. Murni Besar x 50 harga jackpot yang anda beli
      (contoh:anda membeli 1000 maka:1000 X 50 = 50.000)
  3. BALAK x 200 harga jackpot yang anda beli
      (contoh:anda membeli 1000 maka:1000 X 200 = 200.000)
  4. ENAM DEWA x 6666 harga jackpot yang anda beli
      (contoh:anda membeli 1000 maka:1000 X 6666 = 6.666.000)

Demikian adalah penjelasan dari Multi Jackpot www.ingatpoker.net terima kasih dan selamat bermain salam hoki dari kami

Ceme Jackpot Winner

TOP ENAM DEWA
No.TanggalNamaPriceWin
122/09 07:52WEDEBOS99murni enam6,666,000
222/09 07:07P4NJI128murni enam6,666,000
322/09 07:02HERNIAWATImurni enam6,666,000
422/09 07:02KUSOI78murni enam3,333,000
522/09 06:20BO14N9murni enam666,600
TOP BALAK
No.TanggalNamaPriceWin
122/09 07:56DEWOK333balak200,000
222/09 07:56ZACHO46balak100,000
322/09 07:54P4NJI128balak200,000
422/09 07:54OMXAZZbalak200,000
522/09 07:50TANGEBHOTbalak200,000
LATEST JACKPOT
No.TanggalNamaPriceWin
122/09 07:56DEWOK333murni kecil50,000
222/09 07:56UAQJS48BH5murni besar5,000
322/09 07:56MIDIAN212murni besar5,000
422/09 07:56DARKGUARDmurni besar5,000
522/09 07:56SAIFUL16murni kecil50,000
622/09 07:56DTY5OLG1PImurni kecil25,000
722/09 07:56DEWOK333balak200,000
822/09 07:56ZACHO46balak100,000
922/09 07:56PARJAN222murni kecil50,000
1022/09 07:56JHO81murni kecil25,000
1122/09 07:56PAPIFALSmurni kecil25,000
1222/09 07:55MENDOZ48murni besar50,000
1322/09 07:55MIDIAN212murni kecil5,000
1422/09 07:55NEMJIMANmurni besar5,000
1522/09 07:54TANGEBHOTmurni kecil50,000
1622/09 07:54ZOROImurni kecil5,000
1722/09 07:54DUP25murni kecil50,000
1822/09 07:54GALON06murni kecil50,000
1922/09 07:54P4NJI128balak200,000
2022/09 07:54OMXAZZbalak200,000
2122/09 07:53SAIFUL16murni kecil50,000
2222/09 07:53JIRAYU7murni besar50,000
2322/09 07:53BONYKU008murni besar50,000
2422/09 07:52SHIRO1997murni kecil50,000
2522/09 07:52MOTODAM88murni kecil50,000
2622/09 07:52WEDEBOS99murni enam6,666,000
2722/09 07:52P4NJI128murni kecil50,000
2822/09 07:52HENGKII136murni kecil50,000
2922/09 07:51REDRANGEmurni kecil5,000
3022/09 07:51CEPOT_65murni kecil50,000
3122/09 07:51ANTILmurni besar5,000
3222/09 07:51MIDIAN212murni kecil5,000
3322/09 07:50TANGEBHOTbalak200,000
3422/09 07:50JHO81murni besar25,000
3522/09 07:50KTUZXRO4YCmurni kecil50,000
3622/09 07:50FAIKAL25murni kecil5,000
3722/09 07:49KTUZXRO4YCmurni besar50,000
3822/09 07:49FAIKAL25murni besar5,000
3922/09 07:49MENDOZ48murni besar50,000
4022/09 07:49191273IDmurni kecil25,000
4122/09 07:48ANTILmurni kecil5,000
4222/09 07:48NURKEMImurni besar50,000
4322/09 07:48DEWODEWImurni kecil50,000
4422/09 07:48DEWODEWImurni kecil50,000
4522/09 07:48INOMARZmurni kecil50,000
4622/09 07:48MAGIC3033murni kecil25,000
4722/09 07:48JIRAYU7murni kecil50,000
4822/09 07:48ABELIOmurni kecil5,000
4922/09 07:47VIRA38balak20,000
5022/09 07:47CUCUDATUKmurni kecil50,000